Location: Newark
(56.0692°N, 115.8617°E)
Time: 12:47:34
(UTC+00:00)

Vanguard 2 Rocket - Pass Details

Date: 27 May 2020
Orbit: 556 x 3325 km, 32.9° (Epoch: 14 July)

Event Time Altitude Azimuth Distance (km) Brightness Sun altitude
Rises 08:50:41 0° 221° (SW) 4,741 11.2 29.1°
Reaches altitude 10° 08:54:14 10° 207° (SSW) 4,152 10.8 28.7°
Maximum altitude 09:02:58 24° 160° (SSE) 3,955 10.1 27.4°
Drops below altitude 10° 09:15:01 10° 115° (ESE) 5,874 10.6 25.8°
Sets 09:21:25 0° 105° (ESE) 7,167 10.9 24.9°
